FW5335 Weather Reports


time (UTC)temp
F
wind
direction
speed
knots
gust
knots
rain 1hr
in
rain 24hr
in
rain mn
in
humidity
%
barometer
mb
20260904105518 69 248 9.6 17.4 0.00 0.03 0.03 69 1016.6
20260904104516 69 248 8.7 15.6 0.00 0.03 0.03 70 1016.5
20260904103518 68 248 7.0 13.0 0.00 0.03 0.03 72 1016.2
20260904102518 67 248 5.2 13.0 0.00 0.03 0.03 75 1016.2
20260904101520 67 270 7.8 15.6 0.00 0.03 0.03 76 1016.2
20260904100519 67 248 7.8 14.8 0.00 0.03 0.03 75 1016.1
20260904095518 67 248 7.0 13.9 0.00 0.03 0.03 74 1016.1
20260904094520 68 248 7.8 14.8 0.00 0.03 0.03 73 1016.3
20260904093601 67 248 7.0 13.0 0.00 0.03 0.03 76 1016.0
20260904092519 67 248 5.2 12.2 0.00 0.03 0.03 76 1016.1
20260904091524 68 248 7.8 17.4 0.00 0.03 0.03 75 1015.9
20260904090539 67 270 7.8 16.5 0.00 0.03 0.03 77 1015.4
20260904085542 66 270 7.0 12.2 0.00 0.03 0.03 81 1015.4
20260904084523 66 270 6.1 13.0 0.00 0.03 0.03 83 1015.3
20260904083521 66 270 6.1 12.2 0.00 0.03 0.03 84 1015.0
20260904082523 65 270 7.0 12.2 0.00 0.03 0.03 85 1015.0
20260904081521 64 248 7.8 13.0 0.00 0.03 0.03 86 1014.9
20260904080544 64 248 7.0 12.2 0.00 0.03 0.03 87 1014.8
20260904075521 64 248 7.0 11.3 0.00 0.03 0.03 87 1014.6
20260904074519 64 248 5.2 8.7 0.00 0.03 0.03 88 1014.6
20260904073522 64 225 4.3 9.6 0.00 0.03 0.03 88 1014.6
20260904072520 63 248 6.1 11.3 0.00 0.03 0.03 88 1014.5
20260904071521 63 248 5.2 10.4 0.00 0.03 0.03 88 1014.3
20260904070526 63 248 7.0 13.0 0.00 0.03 0.03 88 1014.4
20260904065524 63 225 3.5 7.8 0.00 0.03 0.03 88 1014.4
20260904064519 63 248 5.2 9.6 0.03 0.03 0.03 88 1014.3
20260904063519 64 248 4.3 8.7 0.03 0.03 0.03 88 1014.1
20260904062541 64 270 6.1 13.9 0.03 0.03 0.03 87 1014.2
20260904061543 64 248 7.0 12.2 0.03 0.03 0.03 87 1014.0
20260904060540 65 270 6.1 12.2 0.03 0.03 0.03 87 1013.7
20260904055518 66 270 7.0 14.8 0.03 0.03 0.03 87 1013.5
20260904054519 67 248 8.7 17.4 0.00 0.00 0.00 89 1012.9
20260904053522 67 248 7.8 14.8 0.00 0.00 0.00 88 1012.7
20260904052519 67 248 9.6 19.1 0.00 0.00 0.00 87 1012.4
20260904051539 68 225 7.8 14.8 0.00 0.00 0.00 86 1012.7
20260904050524 68 248 9.6 17.4 0.00 0.00 0.00 86 1012.5
20260904045558 68 248 8.7 17.4 0.00 0.00 0.00 85 1012.5
20260904044538 68 225 8.7 15.6 0.00 0.00 0.00 84 1012.4
20260904043519 68 225 9.6 16.5 0.00 0.00 0.00 84 1012.6
20260904042523 68 225 7.0 14.8 0.00 0.00 0.00 84 1012.5
20260904041518 68 225 7.0 13.0 0.00 0.00 0.00 85 1012.5
20260904040518 68 225 5.2 11.3 0.00 0.00 0.00 85 1012.6
20260904035519 69 225 6.1 11.3 0.00 0.00 0.00 84 1012.7
20260904034539 69 225 7.8 17.4 0.00 0.00 0.00 84 1012.5
20260904033538 68 225 9.6 19.1 0.00 0.00 0.00 84 1012.5
20260904032517 68 225 7.8 16.5 0.00 0.00 0.00 84 1012.8
20260904031517 68 225 9.6 19.1 0.00 0.00 0.00 84 1012.9
20260904030520 68 225 8.7 20.9 0.00 0.00 0.00 85 1012.9
20260904025523 68 225 8.7 14.8 0.00 0.00 0.00 85 1013.3
20260904024523 68 225 8.7 14.8 0.00 0.00 0.00 85 1013.6
20260904023519 68 225 7.8 13.0 0.00 0.00 0.00 86 1013.8
20260904022541 68 225 7.0 13.9 0.00 0.00 0.00 86 1013.9
20260904021520 68 225 7.0 13.0 0.00 0.00 0.00 85 1014.0
20260904020522 69 225 8.7 16.5 0.00 0.00 0.00 85 1014.0
20260904015542 69 225 10.4 19.1 0.00 0.00 0.00 84 1013.9
20260904014521 69 225 9.6 17.4 0.00 0.00 0.00 83 1014.1
20260904013520 69 225 8.7 18.2 0.00 0.00 0.00 83 1013.9
20260904012520 69 225 8.7 18.2 0.00 0.00 0.00 83 1013.9
20260904011522 68 225 8.7 19.1 0.00 0.00 0.00 84 1014.0
20260904010518 68 225 8.7 17.4 0.00 0.00 0.00 84 1014.1
20260904005540 68 225 8.7 14.8 0.00 0.00 0.00 84 1014.4
20260904004541 68 225 7.8 14.8 0.00 0.00 0.00 84 1014.5
20260904003523 69 225 8.7 15.6 0.00 0.00 0.00 83 1014.6
20260904002520 69 225 8.7 14.8 0.00 0.00 0.00 82 1014.5
20260904001521 69 225 9.6 19.1 0.00 0.00 0.00 82 1014.6
20260904000520 69 225 7.0 18.2 0.00 0.00 0.00 82 1014.8
20260903235520 68 225 7.0 13.0 0.00 0.00 0.00 81 1014.9
20260903234542 68 203 7.0 17.4 0.00 0.00 0.00 81 1015.0
20260903233521 68 225 7.8 15.6 0.00 0.00 0.00 80 1015.2
20260903232518 68 225 7.8 13.9 0.00 0.00 0.00 80 1015.3
20260903231518 68 225 7.0 13.0 0.00 0.00 0.00 79 1015.3
20260903230540 68 225 10.4 20.0 0.00 0.00 0.00 79 1015.5
20260903225537 68 225 7.8 13.9 0.00 0.00 0.00 79 1015.5
20260903224542 68 225 7.8 13.9 0.00 0.00 0.00 80 1015.5
20260903223521 68 225 7.0 13.9 0.00 0.00 0.00 80 1015.6
20260903222518 68 225 5.2 11.3 0.00 0.00 0.00 80 1015.7
20260903221521 68 225 5.2 11.3 0.00 0.00 0.00 79 1015.9
20260903220522 68 225 6.1 11.3 0.00 0.00 0.00 79 1016.2
20260903215521 68 225 5.2 12.2 0.00 0.00 0.00 79 1016.2
20260903214523 69 225 6.1 12.2 0.00 0.00 0.00 79 1016.3
20260903213526 69 225 6.1 12.2 0.00 0.00 0.00 79 1016.5
20260903212518 69 225 7.0 12.2 0.00 0.00 0.00 79 1016.8
20260903211518 69 225 5.2 10.4 0.00 0.00 0.00 79 1017.0
20260903210537 69 225 4.3 11.3 0.00 0.00 0.00 79 1017.0
20260903205517 69 225 4.3 9.6 0.00 0.00 0.00 79 1017.1
20260903204523 69 225 3.5 7.8 0.00 0.00 0.00 79 1017.2
20260903203519 69 225 4.3 7.8 0.00 0.00 0.00 79 1017.4
20260903202517 69 225 3.5 7.8 0.00 0.00 0.00 78 1017.6
20260903201521 69 248 3.5 7.0 0.00 0.00 0.00 78 1017.8
20260903200518 69 225 5.2 10.4 0.00 0.00 0.00 77 1017.7
20260903195517 69 225 5.2 8.7 0.00 0.00 0.00 77 1017.6
20260903194519 69 225 6.1 10.4 0.00 0.00 0.00 77 1017.9
20260903193518 69 248 4.3 12.2 0.00 0.00 0.00 77 1017.9
20260903192541 69 248 7.0 13.0 0.00 0.00 0.00 77 1018.0
20260903191537 69 248 6.1 12.2 0.00 0.00 0.00 77 1017.9
20260903190538 69 225 6.1 10.4 0.00 0.00 0.00 77 1017.7
20260903185518 69 225 5.2 9.6 0.00 0.00 0.00 76 1017.9
20260903184517 70 248 7.0 13.9 0.00 0.00 0.00 75 1018.1
20260903183523 71 248 7.0 11.3 0.00 0.00 0.00 75 1018.4
20260903182539 72 248 6.1 12.2 0.00 0.00 0.00 74 1018.6
20260903181518 73 248 8.7 19.1 0.00 0.00 0.00 72 1018.4
20260903180559 74 248 7.0 12.2 0.00 0.00 0.00 74 1018.2
20260903175518 74 225 7.0 13.0 0.00 0.00 0.00 72 1017.9
20260903174518 75 225 6.1 13.0 0.00 0.00 0.00 71 1017.9
20260903173518 75 225 7.8 14.8 0.00 0.00 0.00 70 1017.8
20260903172518 75 225 6.1 11.3 0.00 0.00 0.00 70 1017.7
20260903171518 76 225 7.8 13.9 0.00 0.00 0.00 70 1017.8
20260903170518 76 248 6.1 12.2 0.00 0.00 0.00 69 1017.9
20260903165517 76 248 8.7 14.8 0.00 0.00 0.00 68 1017.8
20260903164517 76 248 8.7 16.5 0.00 0.00 0.00 67 1017.9
20260903163517 77 248 7.0 16.5 0.00 0.00 0.00 66 1017.9
20260903162517 78 248 6.1 14.8 0.00 0.00 0.00 65 1018.2
20260903161520 78 248 7.0 13.9 0.00 0.00 0.00 65 1018.0
20260903160520 78 248 8.7 15.6 0.00 0.00 0.00 63 1018.2
20260903155518 79 270 10.4 22.6 0.00 0.00 0.00 63 1018.5
20260903154541 78 248 8.7 20.0 0.00 0.00 0.00 65 1018.6
20260903153520 78 248 7.0 13.0 0.00 0.00 0.00 65 1018.7
20260903152519 78 248 7.0 14.8 0.00 0.00 0.00 65 1018.9
20260903151517 78 248 9.6 20.0 0.00 0.00 0.00 65 1018.9
20260903150525 77 225 7.0 15.6 0.00 0.00 0.00 66 1019.2
20260903145520 77 248 7.8 15.6 0.00 0.00 0.00 67 1019.2
20260903144540 76 225 7.8 13.0 0.00 0.00 0.00 67 1019.3
20260903143518 77 248 8.7 15.6 0.00 0.00 0.00 66 1019.4
20260903142520 76 225 6.1 12.2 0.00 0.00 0.00 67 1019.4
20260903141517 76 248 10.4 19.1 0.00 0.00 0.00 66 1019.4
20260903140522 76 270 7.0 15.6 0.00 0.00 0.00 66 1019.4
20260903135518 76 248 7.0 13.9 0.00 0.00 0.00 66 1019.5
20260903134520 76 225 7.0 13.0 0.00 0.00 0.00 65 1019.5
20260903133520 77 248 10.4 19.1 0.00 0.00 0.00 64 1019.5
20260903132539 76 225 6.1 12.2 0.00 0.00 0.00 66 1019.7
20260903131519 76 248 8.7 16.5 0.00 0.00 0.00 66 1019.8
20260903130520 77 248 8.7 14.8 0.00 0.00 0.00 64 1019.6
20260903125518 78 225 9.6 17.4 0.00 0.00 0.00 62 1019.4
20260903124518 78 248 10.4 17.4 0.00 0.00 0.00 62 1019.3
20260903123518 77 248 8.7 15.6 0.00 0.00 0.00 67 1019.5
20260903122519 77 248 8.7 16.5 0.00 0.00 0.00 68 1019.4
20260903121519 77 248 7.0 14.8 0.00 0.00 0.00 68 1019.4
20260903120538 77 225 12.2 20.9 0.00 0.00 0.00 68 1019.6
20260903115519 77 248 9.6 18.2 0.00 0.00 0.00 69 1019.5
20260903114522 77 225 7.8 16.5 0.00 0.00 0.00 70 1019.4
20260903113519 76 248 7.8 13.0 0.00 0.00 0.00 71 1019.4
20260903112521 75 225 6.1 12.2 0.00 0.00 0.00 72 1019.6
20260903111520 75 225 8.7 14.8 0.00 0.00 0.00 73 1019.5
20260903110542 75 248 8.7 14.8 0.00 0.00 0.00 72 1019.4